GFSNE_prec_cthk_000.txt.gz
RH
14 15 15 15 20 22 23 22 26 34 28 17 19 19 26 32 37 54 57 48 42 39 45 52 61 73 76 78 78 75 71 74 81 89 92 94 96 93
15 15 18 20 22 21 21 20 24 33 36 24 19 23 23 30 41 47 52 47 49 49 38 28 51 48 48 57 57 62 69 71 70 76 80 83 92 91
15 17 19 21 23 22 22 23 29 34 42 28 36 23 24 26 28 36 44 51 50 45 43 44 43 33 30 32 41 47 54 70 72 76 74 75 86 88
16 18 20 22 23 23 25 29 34 37 47 49 39 35 34 38 44 42 37 45 46 41 39 42 39 33 35 30 35 36 44 56 63 72 74 77 79 83
19 22 23 25 24 25 28 34 37 40 47 47 44 43 44 43 45 44 47 44 43 50 49 37 37 39 36 41 38 28 30 37 47 62 70 81 82 82
21 26 27 27 26 28 33 37 42 46 43 49 52 52 47 39 43 41 40 38 45 48 45 45 48 50 48 46 42 38 35 34 35 49 63 71 79 87
27 27 28 28 28 35 39 41 43 48 51 56 58 50 42 40 43 48 48 43 43 51 55 58 51 53 49 40 39 42 47 41 40 43 49 63 73 73
30 29 28 30 37 40 43 47 48 57 60 70 60 53 44 49 45 44 54 53 49 42 60 50 47 43 39 42 42 47 48 46 42 39 40 46 69 70
32 30 31 36 41 43 42 44 54 57 65 67 68 52 47 49 52 50 53 53 49 48 61 46 52 54 53 53 53 46 51 50 46 40 39 45 61 72
33 37 38 42 44 43 45 53 55 52 58 58 55 56 56 50 51 52 56 59 62 67 79 76 79 73 66 71 66 66 65 60 48 39 38 50 57 69
34 40 45 47 48 52 59 57 53 47 46 55 54 56 45 45 54 62 65 76 82 93 97 89 82 81 86 74 64 72 68 57 49 42 47 52 55 64
40 45 48 49 50 62 62 60 52 43 53 43 48 41 48 56 65 74 80 91 93 94 97 97 95 95 80 87 83 79 76 68 57 55 59 60 62 64
44 45 49 55 60 58 58 59 55 55 50 51 46 49 55 67 80 87 89 88 91 96 96 97 95 96 96 90 85 83 79 76 68 67 74 71 74 69
47 47 54 56 55 55 60 57 57 56 53 52 55 64 72 78 82 83 84 87 87 91 88 88 86 92 90 87 91 85 82 76 73 78 78 74 79 81
49 59 56 53 55 58 59 59 55 55 55 64 73 81 89 90 88 85 80 79 84 91 94 97 97 95 94 91 88 88 81 77 77 80 81 81 86 87
55 56 52 57 59 60 56 55 57 62 73 78 88 97 96 97 97 95 95 95 96 97 98 98 97 97 97 92 90 89 84 80 80 83 83 82 90 91
56 51 56 59 57 56 55 58 62 71 81 94 98 98 97 98 96 96 98 98 98 97 97 97 97 95 97 97 90 90 89 87 86 85 87 88 90 92
56 56 60 59 57 55 62 64 69 85 98 98 98 98 98 97 98 98 98 98 98 98 97 97 97 98 97 95 89 89 90 89 88 88 90 90 90 97
57 60 60 58 55 66 69 73 88 98 98 98 98 98 98 98 98 98 98 98 98 98 97 97 95 97 96 97 97 97 98 98 98 98 97 94 96 97
60 62 59 56 65 69 74 93 98 98 98 98 98 98 98 98 98 98 98 98 96 91 86 90 90 97 97 97 97 97 98 98 98 97 97 97 97 97
62 61 56 63 67 75 97 98 98 98 98 98 98 98 98 98 97 96 93 93 90 84 86 90 87 81 84 88 95 97 97 97 97 97 97 97 97 94
63 58 61 66 79 98 98 98 98 98 98 98 95 87 82 79 78 76 77 82 88 86 82 84 83 83 80 80 76 73 72 74 68 67 64 61 62 61
60 60 64 82 98 98 98 98 98 98 94 87 85 84 89 92 92 91 96 97 97 95 95 95 96 89 82 78 76 74 73 74 73 72 72 70 68 67

GFSNE_prec_cthk_003.txt.gz
RH
15 15 16 16 17 19 21 23 26 26 19 16 19 17 30 25 35 30 23 22 28 29 21 34 49 50 49 43 59 73 80 87 90 93 92 94 86 93
17 17 17 18 20 22 22 25 27 29 30 23 23 25 28 32 35 32 35 30 30 37 34 31 40 46 55 51 50 52 57 68 81 84 86 89 86 85
17 18 19 20 22 23 24 25 28 34 42 28 32 29 28 31 30 34 38 42 37 37 36 42 36 43 51 50 43 32 31 50 62 61 62 73 84 81
18 20 22 23 24 26 27 30 35 34 39 43 33 33 33 34 39 45 40 36 36 39 41 46 45 44 58 61 56 61 46 39 45 47 44 55 66 70
19 21 24 27 29 31 34 36 34 37 43 48 40 39 43 47 48 49 42 33 36 36 41 46 47 56 47 61 66 69 72 65 56 46 44 50 57 58
21 25 30 32 34 35 36 39 43 41 42 51 50 50 52 46 58 58 42 37 33 35 38 39 44 52 65 70 73 66 70 60 58 52 55 50 50 50
24 32 34 36 38 43 43 45 47 49 47 51 51 54 51 45 49 48 48 42 38 46 46 43 50 71 70 62 64 62 59 56 53 53 50 43 50 49
32 35 37 39 41 43 44 46 56 57 57 60 61 59 51 49 51 52 53 52 44 42 55 47 60 58 54 55 59 68 58 57 48 45 50 52 44 41
38 39 40 42 45 43 43 46 56 59 63 67 63 57 53 56 53 53 51 46 46 49 66 58 74 69 72 64 59 64 63 54 46 42 46 49 46 43
42 47 48 46 45 47 49 55 59 57 57 61 61 55 59 57 61 56 53 54 58 66 76 89 94 93 84 80 67 65 62 58 57 50 47 44 47 45
48 51 52 53 50 52 59 60 49 47 54 58 57 58 59 60 58 59 57 61 71 84 91 96 95 94 87 83 73 69 68 65 54 50 44 37 34 36
48 50 53 54 52 57 62 56 56 54 56 54 51 51 53 55 63 71 76 76 82 84 88 94 95 97 96 90 84 78 69 60 64 61 55 44 37 37
54 52 51 52 56 59 58 59 61 60 57 52 53 55 64 73 76 81 85 84 80 84 89 91 94 95 97 88 95 93 83 73 76 67 62 59 54 46
56 53 51 55 54 54 58 59 59 59 54 62 71 74 78 87 92 93 94 91 80 79 78 81 84 90 93 92 88 96 85 85 84 79 77 67 63 66
56 54 51 51 52 55 55 58 58 61 72 76 79 86 96 96 96 95 96 96 95 93 91 92 93 95 90 90 83 95 90 88 84 87 78 75 74 75
52 50 48 51 56 56 54 54 65 75 79 86 95 97 95 98 96 98 98 98 98 97 98 98 98 97 96 95 87 91 97 86 86 84 92 92 86 83
52 50 51 54 55 54 54 66 72 80 93 98 98 97 98 98 98 98 98 98 98 98 98 98 97 95 95 98 91 92 95 91 89 89 97 94 93 93
55 58 57 59 58 54 66 74 86 98 98 98 98 98 98 98 98 98 98 98 98 98 98 98 97 96 97 98 94 96 94 92 89 87 93 96 94 96
61 62 63 61 55 65 78 95 98 98 98 98 98 98 98 98 98 98 98 98 98 98 98 98 98 98 98 97 96 98 97 98 91 89 89 89 89 98
64 65 63 56 64 83 98 98 98 98 98 98 98 98 97 95 95 95 95 95 96 96 98 98 97 98 98 97 97 98 98 98 98 93 89 95 97 92
67 65 57 64 87 98 98 98 98 98 98 98 97 94 94 97 96 95 96 97 98 98 98 98 93 94 98 98 97 97 97 98 98 97 97 97 97 95
66 57 64 89 99 98 98 98 98 98 97 95 91 94 97 98 98 98 98 98 97 97 95 93 90 91 89 97 97 97 97 97 97 98 98 97 97 97
58 68 89 98 98 98 98 98 97 94 82 79 79 80 81 82 84 84 83 83 84 87 90 96 92 87 86 85 86 95 94 90 90 89 88 87 80 81

GFSNE_prec_cthk_006.txt.gz
RH
18 17 16 15 16 16 19 21 26 24 22 18 20 20 24 25 29 37 33 28 30 28 32 35 35 36 35 38 36 34 43 48 46 58 74 79 93 93
17 15 14 14 16 17 20 25 28 33 30 20 24 24 22 27 28 35 34 32 32 39 39 40 39 41 43 44 47 44 41 47 49 46 58 67 69 87
14 13 14 15 17 21 25 27 31 37 42 27 26 25 26 29 27 30 38 43 41 45 47 44 40 40 41 41 39 42 48 51 53 55 55 58 65 73
15 14 14 17 20 24 29 34 37 39 41 38 33 34 35 32 35 35 36 43 45 45 48 44 35 38 41 41 38 38 48 50 57 62 65 60 58 58
15 15 17 21 24 32 37 39 41 44 48 51 41 39 42 45 42 42 42 40 38 39 39 40 47 47 45 44 42 41 52 63 64 66 67 69 57 50
18 19 22 28 36 39 42 47 51 52 52 52 53 51 50 48 61 59 45 38 35 41 38 45 45 38 42 48 48 49 61 70 68 69 73 68 62 50
21 24 30 38 42 49 53 55 56 55 60 59 59 61 61 57 57 53 48 40 37 45 46 32 39 38 38 42 48 49 61 71 75 76 75 72 63 50
26 29 37 41 45 53 55 56 59 65 61 61 62 60 54 57 60 58 52 54 48 52 46 42 54 50 56 63 64 65 77 78 73 72 73 72 65 50
31 37 41 46 50 50 50 56 62 61 60 64 63 58 62 61 60 57 58 58 52 50 58 56 72 74 79 81 88 86 76 68 64 63 68 62 60 60
40 44 47 48 52 57 59 63 58 56 52 56 62 66 66 63 64 63 63 62 60 65 77 79 85 86 90 95 97 96 87 78 70 61 62 62 52 51
44 50 55 55 56 61 64 61 58 49 51 57 62 62 60 60 65 69 72 75 71 76 82 84 87 91 94 95 96 96 89 80 69 60 61 62 55 46
50 54 56 56 54 62 62 58 54 53 57 56 53 54 60 68 79 87 92 88 83 75 83 84 86 86 86 90 97 97 91 81 75 67 62 56 51 47
53 51 51 52 57 59 58 58 60 62 57 63 66 68 76 90 96 98 99 98 89 79 81 80 84 82 82 85 91 98 94 82 72 74 69 66 66 60
52 51 47 52 55 54 56 61 61 60 68 72 79 90 96 95 96 97 98 98 99 97 87 82 80 83 85 84 84 91 89 82 78 77 75 76 67 59
49 48 51 55 58 55 58 60 59 71 77 87 96 97 98 97 98 98 97 98 97 97 98 98 97 95 92 85 82 86 90 94 95 97 85 80 75 69
47 54 56 58 58 60 57 56 73 84 97 99 98 98 98 99 99 99 98 97 97 97 98 98 98 97 95 90 87 91 97 94 97 94 81 70 65 63
57 57 59 57 59 57 58 77 93 99 99 99 99 98 98 98 98 98 98 98 99 98 97 97 94 96 95 92 84 93 97 89 89 89 86 78 77 85
61 62 62 64 59 64 84 97 98 99 99 99 98 98 98 98 98 98 98 98 98 98 98 98 97 97 94 87 85 95 95 92 92 96 97 96 95 97
63 65 66 59 68 93 99 99 98 98 99 99 98 98 98 98 98 97 98 98 98 98 98 97 98 98 95 92 93 95 91 91 98 97 98 96 98 97
66 66 60 72 96 99 99 98 98 98 98 98 97 97 98 98 97 98 98 98 98 98 98 96 97 95 95 97 97 95 91 91 95 98 97 97 98 98
63 62 77 96 98 99 99 98 98 98 96 90 88 91 93 96 97 98 98 97 97 98 97 97 97 97 98 97 98 98 98 96 93 95 97 97 97 97
67 79 94 99 99 99 98 98 95 88 84 78 74 78 83 85 86 89 91 94 97 97 98 92 96 96 97 98 98 98 98 98 94 90 94 97 97 97
82 93 98 98 98 98 98 92 84 82 82 81 73 72 74 78 79 79 80 79 77 81 97 97 93 91 96 97 98 98 97 97 97 97 94 94 93 93

GFSNE_prec_cthk_009.txt.gz
RH
20 18 16 14 13 12 14 16 20 23 19 16 20 21 25 26 26 29 28 25 26 31 36 38 46 49 47 49 45 47 47 46 47 45 46 53 48 55
15 14 13 13 12 12 15 19 23 26 27 21 23 26 26 28 29 33 34 34 32 36 43 41 50 47 45 43 52 46 44 48 48 48 48 46 50 50
14 15 15 14 14 15 18 21 27 35 38 23 29 30 30 31 30 36 40 41 41 46 51 48 44 42 42 41 42 44 45 47 47 47 48 54 57 56
17 17 16 16 16 20 25 30 34 35 45 48 35 38 39 42 44 43 42 43 50 48 49 49 49 44 41 44 45 47 47 50 50 51 49 62 63 62
20 20 20 19 22 26 31 36 39 45 52 55 51 45 51 54 51 46 43 46 48 50 53 50 48 44 50 48 44 43 45 50 46 44 51 61 60 61
21 22 22 23 27 34 38 45 52 54 53 52 55 60 60 54 51 48 43 48 49 47 49 49 52 52 42 42 40 40 41 41 47 49 49 60 59 61
23 24 26 29 35 40 51 49 49 52 56 62 63 60 51 45 50 49 54 52 46 55 54 49 47 45 46 48 49 51 51 55 51 51 62 63 61 60
27 28 31 34 38 43 46 53 56 61 64 64 61 56 51 52 53 55 60 58 55 61 62 57 61 56 60 65 71 73 67 62 58 58 61 60 54 55
32 33 34 38 42 43 43 53 54 58 62 62 58 56 58 58 63 65 62 65 69 71 79 70 73 66 70 77 83 89 91 90 89 81 57 55 52 57
34 37 39 40 45 50 51 51 56 57 56 58 59 62 64 69 74 72 73 81 88 89 88 78 73 71 73 81 90 94 97 96 98 97 89 68 60 56
36 38 42 45 45 46 54 57 55 53 50 57 62 63 70 74 82 91 92 93 89 90 83 80 72 75 78 79 81 90 97 98 98 90 84 71 56 48
30 34 37 45 46 55 63 62 56 53 61 60 61 68 79 93 98 98 96 95 95 91 86 83 75 77 78 78 81 87 92 96 96 89 79 67 55 45
39 37 37 44 58 63 63 63 63 63 63 71 80 92 95 97 98 98 98 99 97 95 94 94 79 77 80 77 81 83 93 87 94 87 80 71 59 50
44 45 47 58 59 61 61 63 64 70 79 93 96 98 98 97 98 98 99 99 99 99 98 98 95 89 83 82 84 80 92 90 89 87 85 79 69 61
49 54 55 57 57 56 58 62 77 89 97 97 99 99 99 98 98 98 98 98 97 96 98 98 99 98 97 93 87 89 93 96 97 97 84 86 78 75
53 53 54 56 59 56 61 81 97 98 98 98 98 98 98 98 98 98 98 97 97 95 97 98 98 98 97 90 88 93 98 97 98 98 89 79 74 68
57 55 55 57 52 65 92 96 98 99 99 99 98 98 98 98 98 98 98 97 98 97 97 97 98 98 94 86 92 98 96 95 96 87 81 74 72 75
59 58 57 55 77 96 97 96 97 98 98 98 99 99 98 98 98 98 98 98 98 98 98 98 98 96 86 92 95 93 94 98 97 87 88 97 91 79
56 54 61 84 96 97 98 98 98 98 98 93 90 92 94 98 98 98 97 98 98 98 99 98 95 91 86 94 96 92 98 98 98 98 94 97 88 82
54 68 86 95 97 98 98 98 96 91 88 85 81 84 86 91 95 98 98 98 98 98 98 98 97 95 95 95 92 92 96 98 98 98 98 97 97 94
68 86 93 97 97 98 98 95 88 84 81 81 74 74 83 87 84 85 88 94 98 98 97 97 97 97 97 97 95 92 96 97 97 98 98 98 97 98
86 91 95 97 97 93 87 84 83 81 80 82 79 80 81 80 76 80 82 82 82 97 98 97 97 97 98 96 98 98 94 97 98 96 97 97 97 97
90 95 95 90 88 86 86 85 83 80 77 79 81 83 84 79 78 78 78 77 75 79 95 97 94 97 97 97 97 96 96 96 97 95 95 97 96 98

GFSNE_prec_cthk_012.txt.gz
RH
24 21 18 15 14 14 14 14 18 20 17 16 19 23 25 25 26 29 31 33 37 39 41 43 44 43 44 52 51 52 51 49 49 50 49 47 49 49
22 19 17 16 16 16 16 17 20 24 27 20 21 25 27 32 31 34 42 44 42 43 46 47 45 46 54 55 52 52 53 50 47 48 48 47 48 50
20 18 18 19 19 18 18 21 25 32 37 24 25 26 28 31 32 40 50 53 52 45 46 45 45 51 52 51 54 54 53 53 53 52 52 51 50 48
19 20 21 21 20 20 22 26 31 34 43 42 31 32 34 33 42 50 47 44 43 40 39 47 50 49 50 50 50 51 56 59 56 52 52 54 54 53
22 22 22 23 23 24 28 31 36 40 44 48 40 39 38 51 52 47 41 36 32 37 47 49 51 53 53 52 57 58 54 50 47 48 48 47 47 49
22 23 24 27 28 30 33 38 44 41 41 47 53 50 54 58 52 48 36 35 40 48 49 46 46 48 50 50 47 45 46 45 47 48 46 43 45 50
23 25 28 30 29 35 42 44 44 45 49 54 49 53 56 49 47 44 46 47 53 59 51 56 60 61 59 56 51 47 48 51 51 54 54 55 55 51
25 28 29 29 32 35 36 43 45 52 54 56 60 56 51 53 50 57 57 65 61 67 78 80 83 76 75 71 64 60 67 70 73 75 72 60 51 50
27 28 29 31 33 32 34 43 43 51 59 63 57 57 57 61 61 67 71 80 85 84 86 77 82 81 76 71 65 70 76 81 87 91 91 89 79 67
28 30 33 31 33 41 44 49 56 55 53 55 61 64 65 69 79 91 92 89 88 86 85 82 78 77 69 66 67 71 78 87 94 98 96 98 95 88
30 34 38 35 38 48 58 56 52 50 51 59 61 69 84 96 99 96 92 93 89 89 85 88 86 81 69 67 67 70 79 90 97 98 98 94 97 91
32 32 34 43 50 58 56 54 51 51 59 68 83 90 93 96 99 99 97 96 95 90 89 96 93 89 72 70 70 74 80 90 94 91 90 87 87 86
35 34 38 49 54 56 57 54 56 71 82 90 90 92 95 96 97 98 99 98 94 93 94 98 96 97 90 75 75 72 86 88 91 96 89 84 81 78
42 40 46 54 56 56 53 56 78 92 91 91 94 96 96 96 97 98 98 98 97 96 97 99 97 97 97 90 78 77 92 91 97 98 96 88 78 74
43 47 51 54 52 47 58 87 92 92 94 94 96 97 98 97 97 97 97 97 97 97 98 98 99 97 98 97 93 89 94 94 97 98 96 89 79 69
43 47 50 46 46 71 87 90 93 96 96 97 97 97 97 97 97 98 97 97 96 96 97 98 99 97 93 95 95 94 94 96 96 95 88 83 79 76
46 47 43 49 76 88 90 93 95 97 97 94 91 89 89 93 97 98 98 98 98 97 96 97 93 93 94 97 92 94 97 96 90 87 85 80 88 76
48 45 60 79 88 91 93 95 96 94 91 89 88 84 85 90 94 98 98 98 97 97 97 97 90 91 92 90 93 96 96 96 98 98 97 92 90 80
47 63 81 88 92 92 94 95 92 88 86 84 84 77 86 90 87 89 92 98 97 97 98 97 90 90 92 96 98 97 98 96 98 98 94 89 91 87
62 82 88 91 93 93 90 84 80 80 79 79 80 79 79 83 84 87 85 88 97 97 97 98 98 97 93 96 97 96 97 98 98 98 97 95 98 91
80 86 91 91 88 86 85 84 83 82 76 78 81 82 83 81 80 83 83 86 89 97 97 97 97 98 93 95 97 97 97 98 98 97 97 97 98 93
83 86 84 84 86 87 87 87 88 86 77 79 81 83 83 81 80 78 77 78 83 89 97 96 97 98 97 91 97 97 97 97 97 98 96 97 97 98
80 82 83 84 85 85 87 91 92 85 80 80 80 80 81 81 82 80 78 79 79 79 90 95 97 97 97 97 94 96 95 95 95 96 96 97 97 98

GFSNE_prec_cthk_015.txt.gz
RH
30 31 30 26 23 20 19 20 21 22 19 20 21 20 22 24 27 30 29 29 34 38 44 46 47 46 45 43 43 43 45 49 55 54 54 52 53 51
32 31 26 22 20 21 21 20 21 25 26 19 19 22 26 30 30 32 34 40 41 46 49 50 48 46 45 44 45 45 47 54 55 54 54 57 57 52
32 26 22 22 22 22 22 22 24 27 29 18 21 20 19 21 30 37 40 47 51 51 53 48 44 46 46 49 55 55 53 53 56 53 55 55 54 54
26 22 23 24 24 24 24 24 25 28 35 33 25 22 24 29 30 33 40 47 53 48 40 41 47 48 48 50 50 50 54 55 57 58 59 60 59 57
24 24 25 25 25 24 26 27 30 34 37 39 34 32 32 32 37 43 47 47 43 42 41 44 48 53 52 51 51 53 55 57 57 58 57 53 52 54
25 25 25 25 25 27 30 34 36 36 35 40 41 40 44 48 54 55 43 44 46 48 51 50 53 58 60 62 62 60 58 57 55 52 48 45 42 48
25 24 23 23 26 30 34 33 34 40 43 45 45 53 54 52 54 52 53 53 54 63 75 79 79 77 77 76 75 73 69 67 56 52 48 50 51 49
24 22 22 24 26 30 30 35 44 49 52 59 57 55 51 54 60 70 78 86 83 87 89 80 84 77 75 74 74 75 76 67 67 67 69 70 74 77
23 24 25 28 29 29 31 40 50 51 57 56 51 51 62 72 87 90 93 94 92 91 92 83 83 79 77 78 78 70 64 69 71 74 76 83 86 90
26 29 31 30 32 37 45 49 48 46 46 49 57 71 87 93 95 95 93 93 92 92 92 87 88 86 87 86 75 61 65 69 75 78 81 85 94 97
29 33 34 35 37 46 51 52 48 44 45 65 86 92 92 95 97 93 92 94 88 89 91 93 89 89 88 86 73 64 65 72 73 82 91 95 92 90
32 30 33 38 41 51 53 48 46 53 80 84 85 87 91 93 97 97 96 94 93 86 93 95 92 93 89 87 76 66 69 69 79 91 95 94 93 88
30 30 33 38 44 47 46 51 74 85 85 86 85 87 91 94 96 98 99 97 92 92 94 96 95 97 97 92 84 74 76 78 94 95 98 98 98 97
32 34 37 43 45 41 54 78 87 88 87 88 89 90 90 89 91 96 97 98 98 97 97 98 95 98 98 96 95 86 90 95 97 97 98 98 95 98
36 40 41 42 40 58 76 84 87 87 90 90 87 86 86 84 86 93 96 97 96 96 97 98 91 93 96 96 94 93 96 95 97 95 93 91 91 94
40 39 39 43 63 78 81 85 88 91 90 88 85 85 81 82 87 92 94 94 95 93 95 90 93 97 97 96 98 97 97 97 95 97 87 86 86 83
42 38 41 64 79 83 86 89 90 90 87 84 80 79 75 82 85 85 89 96 96 95 91 86 94 93 94 95 98 98 97 97 96 98 94 84 87 73
38 42 64 80 84 86 88 88 83 79 79 76 75 77 75 75 79 85 86 92 96 96 92 87 94 92 95 97 97 96 98 92 95 98 96 84 86 83
41 63 80 86 87 86 83 80 79 81 81 74 76 78 79 79 78 81 85 85 96 97 97 95 95 94 96 97 97 98 98 97 96 97 97 96 81 72
60 78 85 85 83 82 83 83 82 86 84 76 79 80 81 79 76 77 78 78 89 97 97 98 95 90 95 95 95 97 98 98 97 98 97 89 82 76
76 81 82 82 83 83 83 85 88 89 82 80 82 81 79 79 78 79 77 76 77 96 97 97 97 93 96 97 97 97 98 98 98 98 96 88 89 79
75 77 81 82 82 84 87 90 90 90 87 86 83 81 80 81 82 82 79 78 76 81 98 98 97 95 94 96 96 98 97 97 97 98 94 87 85 76
73 79 78 79 83 84 85 86 87 88 90 89 87 85 83 82 81 82 83 79 79 76 88 97 97 95 95 94 97 95 98 97 97 97 97 97 86 83

GFSNE_prec_cthk_018.txt.gz
RH
33 35 31 34 34 30 27 25 26 26 21 21 21 19 19 21 21 24 26 27 33 35 35 35 37 38 41 44 45 46 44 45 46 47 47 47 48 49
35 33 35 34 30 26 25 27 28 27 26 19 19 21 23 22 21 24 25 29 29 30 39 42 42 45 48 44 42 44 48 47 47 49 50 53 54 55
35 36 34 29 25 26 28 28 27 28 28 18 20 18 17 23 23 28 33 39 40 41 43 48 54 54 52 47 46 47 53 55 56 56 55 56 55 56
37 34 28 26 27 27 26 27 28 28 32 28 18 19 23 25 27 33 38 45 46 46 48 53 53 52 54 52 58 57 56 56 56 49 53 55 55 53
33 28 26 26 24 25 26 27 28 31 32 33 29 27 30 40 40 39 41 42 48 55 62 66 69 70 64 61 57 56 56 56 55 58 61 65 63 60
27 26 24 24 24 27 28 32 34 31 32 37 41 46 47 43 42 41 48 60 69 79 79 80 86 84 83 84 81 78 76 72 71 68 66 62 57 53
26 24 26 25 27 30 33 32 34 37 42 48 49 46 43 40 49 63 74 77 79 85 82 82 84 84 84 80 78 76 75 76 74 75 76 76 70 57
26 27 27 27 27 27 28 33 39 46 48 49 45 42 47 63 75 79 81 81 77 88 88 81 87 84 84 85 86 85 85 80 77 77 72 67 66 67
28 27 27 27 26 26 27 32 44 45 45 44 46 61 75 80 83 83 83 85 87 89 88 79 85 84 87 86 88 88 90 84 68 66 70 73 75 76
28 28 28 26 29 34 35 42 39 37 38 58 76 79 83 86 88 88 86 85 86 89 90 85 87 84 86 84 83 86 88 71 68 69 73 75 74 76
29 29 29 32 33 38 44 41 37 40 67 77 81 85 85 87 91 88 86 87 83 86 89 92 89 88 90 87 85 87 78 71 71 69 72 75 77 82
31 29 29 33 36 40 43 41 51 68 76 79 80 82 83 83 86 89 88 89 88 84 90 92 88 83 86 88 94 91 78 72 72 75 80 91 97 98
30 26 27 34 39 41 44 60 74 79 80 80 79 78 78 80 81 82 89 95 89 90 92 87 81 90 95 90 90 90 89 91 94 96 97 98 98 98
31 29 33 39 36 39 61 76 80 82 81 80 80 78 76 76 75 84 88 92 95 94 91 84 89 91 93 93 93 92 94 94 96 97 98 95 93 92
31 34 34 35 35 59 75 80 82 82 82 79 75 71 70 72 71 79 83 87 94 93 91 85 90 91 91 89 94 95 93 93 96 97 96 88 90 95
33 32 33 36 62 77 79 82 83 82 77 74 72 67 69 72 72 71 81 82 89 90 88 85 90 94 94 96 96 97 98 97 96 96 94 91 96 98
35 32 35 61 78 81 81 80 78 78 77 79 76 70 72 74 76 76 77 81 89 92 88 82 87 92 94 95 95 96 97 98 97 96 90 91 89 84
33 34 58 77 80 76 76 77 79 79 81 81 75 75 75 74 74 74 75 75 82 93 94 90 86 86 85 87 92 92 96 97 98 98 98 88 90 66
33 52 75 77 76 77 77 78 80 84 85 81 78 79 78 77 75 74 74 73 73 90 96 95 89 89 87 88 89 97 96 96 94 98 86 88 82 67
45 72 72 75 77 77 80 82 84 86 86 83 83 82 80 78 77 79 78 75 74 79 95 96 94 88 91 92 92 94 96 96 94 97 96 87 82 78
68 69 72 74 77 79 80 81 82 83 85 87 88 86 84 83 82 80 80 79 78 75 92 96 96 90 93 92 93 96 97 97 97 97 94 90 81 78
67 68 72 76 78 79 80 80 81 86 87 86 86 84 84 84 84 85 84 80 78 77 84 97 96 90 90 91 94 98 97 98 97 97 88 88 81 76
66 69 72 78 79 80 82 85 88 91 95 96 97 93 90 90 91 89 86 82 80 78 77 96 96 92 92 89 93 97 97 97 97 89 89 87 84 85